Location: Bruderhein
(53.8035°N, 112.9265°W)
Time: 03:09:42
(UTC+00:00)

STRAND 1 - Pass Details

Date: 07 April 2023
Orbit: 767 x 779 km, 98.4° (Epoch: 31 May)

Event Time Altitude Azimuth Distance (km) Brightness Sun altitude
Rises 04:59:10 0° 6° (N) 3,254 ? -21.3°
Reaches altitude 10° 05:03:10 10° 334° (NNW) 2,321 ? -21.7°
Maximum altitude 05:04:46 11° 316° (NW) 2,217 ? -21.8°
Drops below altitude 10° 05:06:22 10° 297° (WNW) 2,317 ? -22.0°
Sets 05:10:22 0° 266° (W) 3,239 ? -22.4°
